THAICOM 8

Last updated on Sat Sep 05 2026 00:03:04 GMT+0000 (Coordinated Universal Time)

1 41552U 16031A 26247.61136007 -.00000129 00000+0 00000+0 0 9994 2 41552 0.0696 27.2260 0001166 80.4391 174.6886 1.00272724 37519
UTC large
Height (km)
Speed (km/s)
/
Latitude / Longitude
Inclination (degrees)
Orbital Period (minutes)
Azimuth
Elevation
Range (km)
Doppler Factor

Next 0 passes for location: London (51.5072 / 0.1276)

No passes found over London.
THAICOM 8